EW1179 Weather Reports


Display with metric or nautical units.
time (UTC)temp
F
wind
direction
speed
MPH
gust
MPH
rain 1hr
in
rain 24hr
in
rain mn
in
humidity
%
barometer
mb
20260901014600 62 242 0.0 8.0 0.00 0.00 0.00 68 1010.7
20260901013058 63 222 0.0 0.0 0.00 0.00 0.00 66 1010.5
20260901011601 64 228 0.0 0.0 0.00 0.00 0.00 65 1010.6
20260901010056 65 268 0.0 4.0 0.00 0.00 0.00 64 1010.6
20260901004600 66 355 0.0 3.0 0.00 0.00 0.00 62 1010.6
20260901003056 66 217 0.0 5.0 0.00 0.00 0.00 61 1010.5
20260901001556 68 292 0.0 6.0 0.00 0.00 0.00 59 1010.6
20260901000053 68 212 1.0 7.0 0.00 0.00 0.00 57 1010.6
20260831234553 69 232 0.0 3.0 0.00 0.00 0.00 57 1010.6
20260831233055 69 209 0.0 4.0 0.00 0.00 0.00 56 1010.6
20260831231555 69 267 0.0 5.0 0.00 0.00 0.00 56 1010.9
20260831230055 70 199 0.0 3.0 0.00 0.00 0.00 54 1010.9
20260831224551 70 102 0.0 8.0 0.00 0.00 0.00 52 1011.0
20260831223052 72 104 1.0 8.0 0.00 0.00 0.00 51 1011.0
20260831221558 73 236 1.0 8.0 0.00 0.00 0.00 48 1011.1
20260831220101 74 202 0.0 6.0 0.00 0.00 0.00 48 1011.2
20260831214552 74 202 1.0 7.0 0.00 0.00 0.00 47 1011.0
20260831213049 75 206 0.0 9.0 0.00 0.00 0.00 46 1011.1
20260831211600 75 183 2.0 7.0 0.00 0.00 0.00 44 1011.2
20260831210048 76 242 2.0 6.0 0.00 0.00 0.00 45 1011.1
20260831204553 75 272 2.0 9.0 0.00 0.00 0.00 46 1011.0
20260831203047 75 225 2.0 7.0 0.00 0.00 0.00 46 1011.1
20260831201546 76 244 1.0 7.0 0.00 0.00 0.00 46 1011.2
20260831200052 76 225 0.0 5.0 0.00 0.00 0.00 46 1011.3
20260831194540 75 244 0.0 3.0 0.00 0.00 0.00 48 1011.5
20260831193042 73 197 0.0 4.0 0.00 0.00 0.00 51 1011.8
20260831191536 73 22 0.0 5.0 0.00 0.00 0.00 52 1012.1
20260831190030 71 227 0.0 5.0 0.00 0.00 0.00 54 1012.2
20260831184527 69 68 0.0 4.0 0.00 0.00 0.00 58 1012.3
20260831183022 69 163 0.0 2.0 0.00 0.00 0.00 59 1012.5
20260831181522 68 344 0.0 0.0 0.00 0.00 0.00 61 1012.6
20260831180024 66 96 0.0 3.0 0.00 0.00 0.00 63 1012.6
20260831174520 65 248 0.0 4.0 0.00 0.00 0.00 65 1012.5
20260831173007 64 29 0.0 5.0 0.00 0.00 0.00 67 1012.5
20260831171502 63 250 0.0 2.0 0.00 0.00 0.00 68 1012.6
20260831164603 61 25 0.0 3.0 0.00 0.00 0.00 73 1012.4
20260831163051 60 215 0.0 2.0 0.00 0.00 0.00 77 1012.4
20260831161546 58 121 0.0 2.0 0.00 0.00 0.00 81 1012.5
20260831160046 55 103 0.0 1.0 0.00 0.00 0.00 87 1012.4
20260831154537 54 119 0.0 0.0 0.00 0.00 0.00 88 1012.4
20260831153033 53 106 0.0 0.0 0.00 0.00 0.00 88 1012.4
20260831151531 52 107 0.0 0.0 0.00 0.00 0.00 89 1012.4
20260831150028 51 107 0.0 0.0 0.00 0.00 0.00 89 1012.3
20260831144525 51 107 0.0 0.0 0.00 0.00 0.00 90 1012.0
20260831143023 50 107 0.0 0.0 0.00 0.00 0.00 90 1011.9
20260831141519 50 288 0.0 0.0 0.00 0.00 0.00 89 1011.7
20260831140016 49 288 0.0 0.0 0.00 0.00 0.00 89 1011.4
20260831134513 49 288 0.0 0.0 0.00 0.00 0.00 89 1011.1
20260831133013 49 288 0.0 0.0 0.00 0.00 0.00 89 1011.1
20260831131512 49 288 0.0 0.0 0.00 0.00 0.00 89 1011.1
20260831130013 49 288 0.0 0.0 0.00 0.00 0.00 89 1011.2
20260831124510 49 288 0.0 0.0 0.00 0.00 0.00 89 1011.1
20260831123008 48 288 0.0 0.0 0.00 0.00 0.00 88 1010.9
20260831121508 48 288 0.0 0.0 0.00 0.00 0.00 88 1010.7
20260831120014 49 288 0.0 0.0 0.00 0.00 0.00 88 1010.9
20260831114515 49 288 0.0 0.0 0.00 0.00 0.00 88 1010.8
20260831113004 49 288 0.0 0.0 0.00 0.00 0.00 87 1010.8
20260831111501 50 288 0.0 0.0 0.00 0.00 0.00 88 1010.8
20260831110100 50 288 0.0 0.0 0.00 0.00 0.00 88 1010.7
20260831104559 51 288 0.0 0.0 0.00 0.00 0.00 88 1010.7
20260831103056 51 288 0.0 0.0 0.00 0.00 0.00 88 1010.6
20260831101555 52 288 0.0 0.0 0.00 0.00 0.00 88 1010.6
20260831094552 52 305 0.0 0.0 0.00 0.00 0.00 87 1010.6
20260831093052 52 305 0.0 0.0 0.00 0.00 0.00 87 1010.8
20260831091550 52 305 0.0 0.0 0.00 0.00 0.00 87 1010.8
20260831090050 52 305 0.0 0.0 0.00 0.00 0.00 87 1010.7
20260831084554 53 299 0.0 0.0 0.00 0.00 0.00 87 1010.7
20260831083046 53 213 0.0 0.0 0.00 0.00 0.00 86 1010.8
20260831081545 53 304 0.0 0.0 0.00 0.00 0.00 85 1010.9
20260831080043 53 279 0.0 0.0 0.00 0.00 0.00 84 1010.9
20260831074542 53 234 0.0 0.0 0.00 0.00 0.00 83 1011.0
20260831073040 53 277 0.0 0.0 0.00 0.00 0.00 82 1011.0
20260831071538 53 259 0.0 0.0 0.00 0.00 0.00 80 1011.0
20260831070038 54 325 0.0 0.0 0.00 0.00 0.00 78 1011.0
20260831064537 54 325 0.0 0.0 0.00 0.00 0.00 77 1011.0
20260831063035 54 325 0.0 0.0 0.00 0.00 0.00 77 1010.8
20260831061535 55 325 0.0 0.0 0.00 0.00 0.00 77 1010.9
20260831060033 56 325 0.0 0.0 0.00 0.00 0.00 77 1010.8
20260831054534 56 298 0.0 0.0 0.00 0.00 0.00 77 1010.7
20260831053034 56 233 0.0 4.0 0.00 0.00 0.00 75 1010.7
20260831051533 57 319 0.0 0.0 0.00 0.00 0.00 73 1010.8
20260831050032 57 250 0.0 3.0 0.00 0.00 0.00 73 1010.8
20260831044532 58 241 0.0 1.0 0.00 0.00 0.00 69 1010.7
20260831043031 59 240 0.0 0.0 0.00 0.00 0.00 66 1010.8
20260831041531 60 289 0.0 0.0 0.00 0.00 0.00 62 1010.6
20260831040033 61 219 0.0 0.0 0.00 0.00 0.00 59 1010.4
20260831034534 62 322 0.0 0.0 0.00 0.00 0.00 54 1010.2
20260831033036 63 248 0.0 0.0 0.00 0.00 0.00 52 1009.8
20260831031530 63 213 0.0 0.0 0.00 0.00 0.00 52 1009.6
20260831030029 64 132 0.0 0.0 0.00 0.00 0.00 51 1009.5
20260831024528 65 217 0.0 0.0 0.00 0.00 0.00 47 1009.3
20260831023028 66 234 0.0 0.0 0.00 0.00 0.00 47 1009.2
20260831021527 68 223 0.0 0.0 0.00 0.00 0.00 47 1009.1
20260831020027 69 360 0.0 1.0 0.00 0.00 0.00 45 1009.2